This is the latest recevied weather packets stored in our database for station/object W3TMB. If no packets are shown the sender has not sent any weather packets the latest 10 day(s).
| Time | Temp. | Humidity | Pressure | Rain* | Wind** | Luminosity | Snow |
|---|---|---|---|---|---|---|---|
| 1777524956 | 10.56° C | 99% | 1004.4 hPa | 0 mm | - | 0 W/m² | - |
| 1777524654 | 10.56° C | 99% | 1004.5 hPa | 0 mm | - | 0 W/m² | - |
| 1777524353 | 10.56° C | 99% | 1004.5 hPa | 0 mm | - | 0 W/m² | - |
| 1777524047 | 10.56° C | 99% | 1004.3 hPa | 1.27 mm | - | 0 W/m² | - |
| 1777523744 | 10.56° C | 99% | 1004.3 hPa | 1.27 mm | - | 0 W/m² | - |
| 1777523441 | 10.56° C | 99% | 1004.4 hPa | 0 mm | - | 0 W/m² | - |
| 1777523137 | 10.56° C | 99% | 1004.5 hPa | 0 mm | - | 0 W/m² | - |
| 1777522833 | 10.56° C | 99% | 1004.5 hPa | 7.87 mm | - | 0 W/m² | - |
| 1777522530 | 10.56° C | 99% | 1004.5 hPa | 11.94 mm | - | 0 W/m² | - |
| 1777522228 | 10.56° C | 99% | 1004.4 hPa | 7.87 mm | - | 0 W/m² | - |
| 1777521924 | 10.56° C | 99% | 1004.5 hPa | 1.78 mm | - | 0 W/m² | - |
| 1777521621 | 10.56° C | 99% | 1004.5 hPa | 0 mm | - | 0 W/m² | - |
| 1777521319 | 10.56° C | 99% | 1004.3 hPa | 0 mm | - | 0 W/m² | - |
| 1777521015 | 10.56° C | 99% | 1004.5 hPa | 0 mm | - | 0 W/m² | - |
| 1777520712 | 11.11° C | 99% | 1004.5 hPa | 0 mm | - | 0 W/m² | - |
| 1777520409 | 11.11° C | 99% | 1004.3 hPa | 0 mm | - | 0 W/m² | - |
| 1777520106 | 11.11° C | 99% | 1004.5 hPa | 0 mm | - | 0 W/m² | - |
| 1777519804 | 11.11° C | 99% | 1004.5 hPa | 0 mm | - | 0 W/m² | - |
| 1777519501 | 11.11° C | 99% | 1004.5 hPa | 0 mm | - | 0 W/m² | - |
| 1777519196 | 11.11° C | 99% | 1004.6 hPa | 0 mm | - | 0 W/m² | - |
| 1777518892 | 11.11° C | 99% | 1004.5 hPa | 0 mm | - | 0 W/m² | - |
| 1777518589 | 11.11° C | 99% | 1004.8 hPa | 0 mm | - | 0 W/m² | - |
| 1777518284 | 11.11° C | 99% | 1004.7 hPa | 0 mm | - | 0 W/m² | - |
| 1777517981 | 11.11° C | 99% | 1004.7 hPa | 0 mm | - | 0 W/m² | - |
| 1777517678 | 11.11° C | 99% | 1004.8 hPa | 0 mm | - | 0 W/m² | - |
* Rain latest hour (hover to see other rain measurements)
** Current wind speed in m/s (hover to see current wind gust speed)